AirNav   Air Wisconsin pilot careers
 
 381 users online  

MS20 Mach 1 Jet Port Airport
Brandon, Mississippi, USA


FAA INFORMATION EFFECTIVE 07 DECEMBER 2017

Location

FAA Identifier: MS20
Lat/Long: 32-27-16.0000N / 089-54-16.0000W
32-27.266667N / 089-54.266667W
32.4544444 / -89.9044444
(estimated)
Elevation: 377 ft. / 115 m (estimated)
From city: 10 miles N of BRANDON, MS
Time zone: UTC -6 (UTC -5 during Daylight Saving Time)
Zip code: 39145

Airport Operations

Airport use: Private use. Permission required prior to landing
Activation date: 03/2011
Control tower: no
ARTCC: MEMPHIS CENTER
FSS: GREENWOOD FLIGHT SERVICE STATION
Attendance: MON-FRI 0800-1700
Segmented circle: no

Airport Communications

WX AWOS-3 at MBO (10 nm W): 119.125 (601-605-8137)
WX ASOS at JAN (12 nm SW): PHONE 601-932-2822
WX ASOS at HKS (18 nm SW): 120.625 (601-354-4037)

Nearby radio navigation aids

VOR radial/distance  VOR name  Freq  Var
MHZr084/10.0MAGNOLIA VORTAC113.2001W

 
NDB name  Hdg/Dist  Freq  Var  ID
ALLEN078/11.236501WJA .--- .-

Airport Services

Runway Information

Runway 18/36

Dimensions: 1200 x 50 ft. / 366 x 15 m
Surface: turf
RUNWAY 18  RUNWAY 36
Traffic pattern: leftleft

Airport Ownership and Management from official FAA records

Ownership: Privately-owned
Owner: CARL DAVIS
200 JETPORT
BRANDON, MS 39047
Phone 601-936-0777
Manager: CARL DAVIS
200 JETPORT
BRANDON, MS 39047
Phone 601-936-0777

Instrument Procedures

There are no published instrument procedures at MS20.

Some nearby airports with instrument procedures:

KMBO - Bruce Campbell Field Airport (10 nm W)
KJAN - Jackson-Medgar Wiley Evers International Airport (12 nm SW)
KHKS - Hawkins Field Airport (18 nm SW)
KJVW - John Bell Williams Airport (27 nm W)
17M - Magee Municipal Airport (36 nm S)
 
Loc | Ops | Rwys | IFR | FBO | Links
Com | Nav | Svcs | Stats | Notes


 
Aerial photo
No photo
 
Sectional chart

 
Airport distance calculator
Flying to Mach 1 Jet Port Airport? Find the distance to fly.

From to MS20

Sunrise and sunset
Times for 13-Dec-2017
 Local
(UTC-6)
 Zulu
(UTC)
Morning civil twilight06:2612:26
Sunrise06:5412:54
Sunset16:5422:54
Evening civil twilight17:2123:21

Current date and time
Zulu (UTC)  13-Dec-2017 08:41:59
Local (UTC-6)  13-Dec-2017 02:41:59
 
METAR
KMBO 
10nm W 
130815Z AUTO 00000KT 10SM CLR M02/M02 A3014 RMK AO2
KJAN 
12nm SW 
130754Z AUTO 00000KT 10SM CLR M01/M03 A3014 RMK AO2 SLP206 T10061028
KHKS 
17nm SW 
130753Z AUTO 00000KT 10SM CLR 00/M02 A3015 RMK AO2 SLP206 T00001022
TAF
KJAN 
12nm SW 
130527Z 1306/1406 VRB03KT P6SM SKC FM131700 22010G17KT P6SM SKC FM140000 21009KT P6SM SKC
KHKS 
17nm SW 
130527Z 1306/1406 VRB03KT P6SM SKC FM131700 22010G15KT P6SM SKC FM140000 22009KT P6SM SKC
NOTAMs
Click for the latest NOTAMs
NOTAMs are issued by the DoD/FAA and will open in a separate window not controlled by AirNav.

 

 
 

Would you like to see your business listed on this page?

 If your business provides an interesting product or service to pilots, flight crews, aircraft, or users of the Mach 1 Jet Port Airport, you should consider listing it here.  To start the listing process, click on the button below
 
Add a business
 

Other Pages about Mach 1 Jet Port Airport

Update a link
 
Copyright © AirNav, LLC. All rights reserved. Privacy Policy  Contact